Regional Weather Roundup
Issued by NWS

Home | Current Version | Previous Version | Text Only | Print | Product List | Glossary On
Versions: 1 2 3 4 5 6 7 8 9 10 11 12 13 14 15 16 17 18 19 20 21 22 23 24 25 26 27 28 29 30 31 32 33 34 35 36 37 38 39 40 41 42 43 44 45 46 47 48 49 50
000
ASUS43 KIND 301609
RWRIN

WEATHER ROUNDUP FOR INDIANA
NATIONAL WEATHER SERVICE INDIANAPOLIS IN
1200 PM EDT SAT AUG 30 2014

NOTE: "FAIR" INDICATES FEW OR NO CLOUDS BELOW 12,000 FEET WITH NO
SIGNIFICANT WEATHER AND/OR OBSTRUCTIONS TO VISIBILITY.

* - STATION DOES NOT REPORT WEATHER SUCH AS PRECIPITATION OR FOG.

+ - STATION NOT QUALITY CONTROLLED BY THE NATIONAL WEATHER SERVICE.
    USE DATA WITH CAUTION...ESPECIALLY DEWPOINT AND RELATIVE
    HUMIDITY OBSERVATIONS.

INZ001>003-010>013-019-020-301700-
NORTHWEST INDIANA

CITY           SKY/WX    TMP DP  RH WIND       PRES   REMARKS
GARY /AIRPORT/ PTSUNNY   79  70  73 SW12      29.89S
KNOX *+        CLOUDY    77  69  75 S14       29.92S
LA PORTE +     CLOUDY    77  69  77 SW14G20   29.92F
MICHIGAN CITY+ CLOUDY    77  68  73 S8G20     29.90S
MONTICELLO +   MOSUNNY   78  71  77 SW12G18   29.95S
RENSSELAER +   PTSUNNY   79  72  78 S13G21    29.94S
VALPARAISO     CLOUDY    78  69  73 S13       29.92S

$$

LMZ046-743>745-301700-
SOUTHERN LAKE MICHIGAN

STATION/POSITION TIME  TEMP WIND        PRES
                       AIR  DIR/SP/G
                 (UTC) (F)  (DEG/KT/KT) (MB)
MICHIGAN CITY    1600   76  170/ 16/ 22   N/A

$$

INZ004-005-014>016-021>024-301700-
NORTH CENTRAL INDIANA

CITY           SKY/WX    TMP DP  RH WIND       PRES   REMARKS
GOSHEN         PTSUNNY   78  70  76 S15       29.94F
LOGANSPORT +   PTSUNNY   79  68  69 S12G17    29.97F
PERU/GRISSOM   PTSUNNY   78  73  82 SW13      29.98S
ROCHESTER +    PTSUNNY   79  70  73 SW14G23   29.97R
SOUTH BEND     PTSUNNY   78  70  76 SW15G22   29.92S
WARSAW +       PTSUNNY   77  68  73 SW10G17   29.96S

$$

INZ006>009-017-018-025>027-301700-
NORTHEAST INDIANA

CITY           SKY/WX    TMP DP  RH WIND       PRES   REMARKS
ANGOLA *+      PTSUNNY   79  72  78 SW13      29.96S
AUBURN +       CLOUDY    79  64  61 SW12G17   29.98S
FORT WAYNE     CLOUDY    78  69  73 SW14      29.99S
HUNTINGTON +   CLOUDY    76  68  75 SW12G17   29.99R

$$

INZ028-029-035-036-043>045-051>053-301700-
WEST CENTRAL INDIANA

CITY           SKY/WX    TMP DP  RH WIND       PRES   REMARKS
GREENCASTLE +  CLOUDY    73  70  88 S12G17    30.03S
LAFAYETTE      MOSUNNY   79  70  74 S10G20    29.97R
TERRE HAUTE    PTSUNNY   76  71  85 S13       30.02R

$$

INZ030>032-037>040-046>048-054>057-064-065-301700-
CENTRAL INDIANA

CITY           SKY/WX    TMP DP  RH WIND       PRES   REMARKS
ANDERSON       CLOUDY    75  66  73 S14G20    30.04S
CP ATTERBURY + CLOUDY    72  70  94 SW3       30.05S
COLUMBUS       CLOUDY    72  72 100 S8        30.05S
FRANKFORT +    MOSUNNY   78  69  75 S10G18    30.01S
INDIANAPOLIS   LGT RAIN  75  69  81 S15       30.02R
-EAGLE CREEK   PTSUNNY   75  68  78 S13G20    30.02S
KOKOMO *+      CLOUDY    75  68  78 SW15G24   30.00S
MARION +       CLOUDY    78  67  68 SW17      30.01S
MT COMFORT *+  CLOUDY    73  73 100 SW6       30.04S
SHELBYVILLE    RAIN      74  70  87 S12       30.04S FOG
ZIONSVILLE +   LGT RAIN  76  68  78 S13       30.03R

$$

INZ033-034-041-042-049-050-058-059-301700-
EAST CENTRAL INDIANA

CITY           SKY/WX    TMP DP  RH WIND       PRES   REMARKS
MUNCIE         CLOUDY    76  67  73 SW15      30.02R

$$

INZ060-061-067>069-081>083-085>088-301700-
SOUTHWEST INDIANA

CITY           SKY/WX    TMP DP  RH WIND       PRES   REMARKS
EVANSVILLE     CLOUDY    77  70  79 CALM      30.05S
WASHINGTON +   CLOUDY    74  73  96 SW5       30.03S

$$

INZ062-063-066-070>080-084-089>092-301700-
SOUTH CENTRAL AND SOUTHEAST INDIANA

CITY           SKY/WX    TMP DP  RH WIND       PRES   REMARKS
BEDFORD +      RAIN      73  68  83 S3        30.07R
BLOOMINGTON    LGT RAIN  72  69  90 W9        30.05R

$$



USA.gov is the U.S. government's official web portal to all federal, state and local government web resources and services.